Terminal Aerodrome Forecast
Issued by NWS Raleigh/Durham, NC

Home | Current Version | Previous Version | Text Only | Print | Product List | Glossary On
Versions: 1 2 3 4 5 6 7 8 9 10 11 12 13 14 15 16 17 18 19 20 21 22 23 24 25 26 27 28 29 30 31 32 33 34 35 36 37 38 39 40 41 42
000
FTUS42 KRAH 031326 AAA
TAFRDU
TAF AMD
KRDU 031326Z 0313/0412 23007KT P6SM BKN012
     FM031430 22008KT P6SM SCT020 SCT250
     FM041000 21006KT 5SM BR BKN007=

USA.gov is the U.S. government's official web portal to all federal, state and local government web resources and services.